Location: Newark
(33.6439°N, 114.9881°W)
Time: 20:55:10
(UTC+00:00)

Tiros 1 - Pass Details

Date: 23 July 2019
Orbit: 631 x 664 km, 48.4° (Epoch: 25 August)

Event Time Altitude Azimuth Distance (km) Brightness Sun altitude
Rises 23:20:19 0° 314° (NW) 2,996 11.1 40.9°
Reaches altitude 10° 23:23:14 10° 331° (NNW) 2,081 10.2 40.3°
Maximum altitude 23:26:49 20° 19° (NNE) 1,503 9.1 39.6°
Drops below altitude 10° 23:30:22 10° 68° (ENE) 2,070 9.4 38.8°
Sets 23:33:15 0° 85° (E) 2,975 10.1 38.2°
